• In Hungary
  • List of Countries
  • For 7 days
  • Water Temperature
  • Satellite Maps
  • Weather Map
  • News
  • Weather Widgets
  • user-avatar
    Login

    Hourly Weather Vratsa

    Today, 18 October, Wednesday

    Time Temperature Precipitation Wind Pressure Humidity
    00:00 +15°C° 0 mm 1 mps 714 mmHg 52%
    01:00 +14°C° 0 mm 1 mps 714 mmHg 52%
    02:00 +14°C° 0 mm 1 mps 714 mmHg 52%
    03:00 +14°C° 0 mm 1 mps 714 mmHg 52%
    04:00 +13°C° 0 mm 1 mps 713 mmHg 52%
    05:00 +13°C° 0 mm 1 mps 713 mmHg 53%
    06:00 +13°C° 0 mm 1 mps 713 mmHg 52%
    07:00 +14°C° 0 mm 1 mps 713 mmHg 52%
    08:00 +14°C° 0 mm 1 mps 713 mmHg 52%
    09:00 +18°C° 0 mm 1 mps 713 mmHg 46%
    10:00 +20°C° 0 mm 1 mps 713 mmHg 41%
    11:00 +22°C° 0 mm 1 mps 714 mmHg 35%
    12:00 +23°C° 0 mm 1 mps 713 mmHg 33%
    13:00 +24°C° 0 mm 1 mps 713 mmHg 31%
    14:00 +25°C° 0 mm 1 mps 713 mmHg 30%
    15:00 +24°C° 0 mm 1 mps 712 mmHg 34%
    16:00 +22°C° 0 mm 1 mps 712 mmHg 38%
    17:00 +21°C° 0 mm 1 mps 711 mmHg 42%
    18:00 +20°C° 0 mm 1 mps 711 mmHg 45%
    19:00 +19°C° 0 mm 1 mps 711 mmHg 47%
    20:00 +16°C° 0 mm 1 mps 711 mmHg 49%
    21:00 +16°C° 0 mm 1 mps 711 mmHg 50%
    22:00 +15°C° 0 mm 1 mps 711 mmHg 51%
    23:00 +15°C° 0 mm 1 mps 711 mmHg 51%

    Tomorrow, 19 October, Thursday

    Time Temperature Precipitation Wind Pressure Humidity
    00:00 +14°C° 0 mm 1 mps 711 mmHg 52%
    01:00 +14°C° 0 mm 1 mps 711 mmHg 52%
    02:00 +14°C° 0 mm 1 mps 710 mmHg 53%
    03:00 +13°C° 0 mm 1 mps 710 mmHg 53%
    04:00 +13°C° 0 mm 1 mps 710 mmHg 54%
    05:00 +13°C° 0 mm 1 mps 710 mmHg 55%
    06:00 +13°C° 0 mm 1 mps 710 mmHg 55%
    07:00 +14°C° 0 mm 1 mps 710 mmHg 55%
    08:00 +14°C° 0 mm 1 mps 710 mmHg 55%
    09:00 +16°C° 0 mm 1 mps 710 mmHg 49%
    10:00 +20°C° 0 mm 1 mps 710 mmHg 42%
    11:00 +22°C° 0 mm 1 mps 711 mmHg 36%
    12:00 +23°C° 0 mm 1 mps 710 mmHg 34%
    13:00 +23°C° 0 mm 1 mps 710 mmHg 32%
    14:00 +24°C° 0 mm 1 mps 710 mmHg 30%
    15:00 +23°C° 0 mm 1 mps 709 mmHg 34%
    16:00 +22°C° 0 mm 1 mps 709 mmHg 38%
    17:00 +21°C° 0 mm 1 mps 709 mmHg 43%
    18:00 +19°C° 0 mm 1 mps 709 mmHg 45%
    19:00 +18°C° 0 mm 1 mps 709 mmHg 47%
    20:00 +16°C° 0 mm 1 mps 709 mmHg 50%
    21:00 +16°C° 0 mm 1 mps 709 mmHg 51%
    22:00 +15°C° 0 mm 1 mps 709 mmHg 51%
    23:00 +15°C° 0 mm 1 mps 709 mmHg 52%

    Day after tomorrow, 20 October, Friday

    Time Temperature Precipitation Wind Pressure Humidity
    00:00 +14°C° 0 mm 1 mps 709 mmHg 52%
    01:00 +14°C° 0 mm 1 mps 709 mmHg 53%
    02:00 +14°C° 0 mm 1 mps 709 mmHg 53%
    03:00 +13°C° 0 mm 1 mps 709 mmHg 53%
    04:00 +13°C° 0 mm 1 mps 709 mmHg 54%
    05:00 +13°C° 0 mm 1 mps 708 mmHg 54%
    06:00 +13°C° 0 mm 1 mps 709 mmHg 54%
    07:00 +14°C° 0 mm 1 mps 709 mmHg 54%
    08:00 +14°C° 0 mm 1 mps 709 mmHg 53%
    09:00 +16°C° 0 mm 1 mps 710 mmHg 48%
    10:00 +20°C° 0 mm 1 mps 710 mmHg 42%
    11:00 +22°C° 0 mm 1 mps 710 mmHg 37%
    12:00 +23°C° 0 mm 1 mps 710 mmHg 36%
    13:00 +23°C° 0 mm 1 mps 710 mmHg 35%
    14:00 +24°C° 0 mm 1 mps 710 mmHg 33%
    15:00 +23°C° 0 mm 1 mps 710 mmHg 37%
    16:00 +22°C° 0 mm 1 mps 709 mmHg 42%
    17:00 +21°C° 0 mm 1 mps 709 mmHg 46%
    18:00 +19°C° 0 mm 1 mps 709 mmHg 48%
    19:00 +18°C° 0 mm 1 mps 710 mmHg 51%
    20:00 +16°C° 0 mm 1 mps 710 mmHg 54%
    21:00 +16°C° 0 mm 1 mps 710 mmHg 55%
    22:00 +15°C° 0 mm 1 mps 710 mmHg 56%
    23:00 +15°C° 0 mm 1 mps 710 mmHg 57%

    21 October, Saturday

    Time Temperature Precipitation Wind Pressure Humidity
    00:00 +14°C° 0 mm 1 mps 710 mmHg 58%
    01:00 +14°C° 0 mm 1 mps 710 mmHg 59%
    02:00 +14°C° 0 mm 1 mps 710 mmHg 61%
    03:00 +13°C° 0 mm 1 mps 710 mmHg 62%
    04:00 +13°C° 0 mm 1 mps 710 mmHg 63%
    05:00 +13°C° 0 mm 1 mps 710 mmHg 64%
    06:00 +13°C° 0 mm 1 mps 710 mmHg 64%
    07:00 +13°C° 0 mm 1 mps 711 mmHg 63%
    08:00 +14°C° 0 mm 1 mps 711 mmHg 63%
    09:00 +16°C° 0 mm 1 mps 711 mmHg 56%
    10:00 +19°C° 0 mm 1 mps 711 mmHg 49%
    11:00 +21°C° 0 mm 1 mps 712 mmHg 42%
    12:00 +21°C° 0 mm 1 mps 712 mmHg 41%
    13:00 +22°C° 0 mm 1 mps 711 mmHg 39%
    14:00 +21°C° 0 mm 2 mps 711 mmHg 37%
    15:00 +21°C° 0 mm 1 mps 711 mmHg 41%
    16:00 +20°C° 0 mm 1 mps 711 mmHg 45%
    17:00 +19°C° 0 mm 1 mps 710 mmHg 48%
    18:00 +18°C° 0 mm 1 mps 710 mmHg 51%
    19:00 +16°C° 0 mm 1 mps 711 mmHg 54%
    20:00 +15°C° 0 mm 1 mps 711 mmHg 57%
    21:00 +14°C° 0 mm 1 mps 711 mmHg 59%
    22:00 +14°C° 0 mm 1 mps 711 mmHg 60%
    23:00 +14°C° 0 mm 1 mps 711 mmHg 61%

    22 October, Sunday

    Time Temperature Precipitation Wind Pressure Humidity
    00:00 +13°C° 0 mm 1 mps 711 mmHg 62%
    01:00 +13°C° 0 mm 1 mps 711 mmHg 64%
    02:00 +13°C° 0 mm 1 mps 711 mmHg 65%
    03:00 +12°C° 0 mm 1 mps 711 mmHg 66%
    04:00 +12°C° 0 mm 1 mps 711 mmHg 67%
    05:00 +12°C° 0 mm 1 mps 710 mmHg 68%
    06:00 +12°C° 0 mm 1 mps 711 mmHg 67%
    07:00 +11°C° 0 mm 0 mps 711 mmHg 67%
    08:00 +12°C° 0 mm 0 mps 711 mmHg 66%
    09:00 +15°C° 0 mm 1 mps 711 mmHg 59%
    10:00 +18°C° 0 mm 1 mps 711 mmHg 53%
    11:00 +20°C° 0 mm 1 mps 712 mmHg 46%
    12:00 +20°C° 0 mm 1 mps 711 mmHg 44%
    13:00 +20°C° 0 mm 2 mps 711 mmHg 43%
    14:00 +20°C° 0 mm 2 mps 710 mmHg 41%
    15:00 +19°C° 0 mm 2 mps 710 mmHg 45%
    16:00 +19°C° 0 mm 2 mps 710 mmHg 48%
    17:00 +18°C° 0 mm 2 mps 710 mmHg 52%
    18:00 +16°C° 0 mm 2 mps 710 mmHg 56%
    19:00 +15°C° 0 mm 2 mps 710 mmHg 60%
    20:00 +14°C° 0 mm 2 mps 710 mmHg 64%
    21:00 +14°C° 0 mm 2 mps 710 mmHg 66%
    22:00 +13°C° 0 mm 2 mps 710 mmHg 67%
    23:00 +13°C° 0 mm 2 mps 710 mmHg 69%

    23 October, Monday

    Time Temperature Precipitation Wind Pressure Humidity
    00:00 +13°C° 0 mm 2 mps 709 mmHg 71%
    01:00 +12°C° 0 mm 2 mps 709 mmHg 73%
    02:00 +12°C° 0 mm 2 mps 709 mmHg 75%
    03:00 +12°C° 0 mm 2 mps 709 mmHg 77%
    04:00 +10°C° 0 mm 2 mps 709 mmHg 79%
    05:00 +11°C° 0 mm 1 mps 709 mmHg 80%
    06:00 +11°C° 0 mm 1 mps 709 mmHg 80%
    07:00 +12°C° 0 mm 1 mps 709 mmHg 79%
    08:00 +12°C° 0 mm 1 mps 709 mmHg 78%
    09:00 +13°C° 0 mm 1 mps 710 mmHg 72%
    10:00 +15°C° 0 mm 1 mps 710 mmHg 65%
    11:00 +16°C° 0 mm 1 mps 710 mmHg 59%
    12:00 +17°C° 0 mm 2 mps 710 mmHg 58%
    13:00 +17°C° 0 mm 2 mps 710 mmHg 56%
    14:00 +18°C° 0 mm 3 mps 710 mmHg 55%
    15:00 +17°C° 0 mm 3 mps 710 mmHg 60%
    16:00 +16°C° 0 mm 3 mps 710 mmHg 65%
    17:00 +14°C° 0 mm 3 mps 710 mmHg 70%
    18:00 +13°C° 0 mm 3 mps 710 mmHg 73%
    19:00 +13°C° 0 mm 2 mps 711 mmHg 77%
    20:00 +12°C° 0 mm 2 mps 711 mmHg 81%
    21:00 +12°C° 0 mm 2 mps 711 mmHg 80%
    22:00 +10°C° 0 mm 2 mps 712 mmHg 80%
    23:00 +10°C° 0 mm 2 mps 712 mmHg 80%
    Show more